Location: Albany
(35.0000°S, 118.0000°E)
Time: 11:42:59
(UTC-04:00)

ISS - All Passes

Search period start: 31 October 2014 00:00
Search period end: 09 November 2014 23:00
Orbit: 412 x 417 km, 51.6° (Epoch: 31 October)

Date Brightness Start Highest point End Pass type
(mag) Time Alt. Az. Time Alt. Az. Time Alt. Az.
31 Oct - 08:17:38 10° N 08:20:09 20° NE 08:22:40 10° E night (unlit)
31 Oct - 09:53:33 10° WNW 09:56:40 34° SW 09:59:48 10° SSE night (unlit)
31 Oct - 14:49:49 10° S 14:50:39 11° SSE 14:51:28 10° SE visible
31 Oct - 16:24:34 10° SW 16:27:56 62° SE 16:31:15 10° ENE visible
31 Oct - 18:03:47 10° WNW 18:04:11 10° NW 18:04:35 10° NW daylight
01 Nov - 07:30:49 10° NE 07:31:10 10° NE 07:31:32 10° ENE visible
01 Nov - 09:04:05 10° WNW 09:07:26 63° SW 09:10:48 10° SE night (unlit)
01 Nov - 10:43:47 10° SW 10:44:42 11° SSW 10:45:37 10° S night (unlit)
01 Nov - 15:35:34 10° SSW 15:38:41 33° SE 15:41:46 10° ENE visible
01 Nov - 17:12:41 10° W 17:15:12 20° NW 17:17:42 10° N daylight
02 Nov - 07:14:54 10° NW 07:18:14 65° NE 07:21:36 10° SE visible
02 Nov - 08:53:05 10° WSW 08:55:13 16° SSW 08:57:22 10° S visible
02 Nov - 13:46:41 10° SSW 13:49:20 21° SSE 13:51:57 10° E visible
02 Nov - 15:22:57 10° WSW 15:26:07 38° NW 15:29:14 10° NNE visible
03 Nov - 06:26:02 10° NNW 06:29:04 31° NE 06:32:07 10° ESE visible
03 Nov - 08:02:59 10° W 08:05:47 23° SSW 08:08:35 10° SSE visible
03 Nov - 12:57:59 10° S 12:59:51 14° SSE 13:01:43 10° ESE visible
03 Nov - 14:33:32 10° SW 14:36:55 79° NW 14:40:15 10° NE visible
04 Nov - 05:37:42 10° N 05:39:56 17° NE 05:42:10 10° E daylight
04 Nov - 07:13:10 10° WNW 07:16:22 39° SW 07:19:35 10° SSE visible
04 Nov - 13:44:17 10° SW 13:47:36 52° SE 13:50:53 10° ENE visible
04 Nov - 15:22:30 10° W 15:23:55 12° NW 15:25:20 10° NNW visible
05 Nov - 06:23:38 10° NW 06:27:00 75° SW 06:30:23 10° SE visible
05 Nov - 08:02:50 10° SW 08:04:11 12° SSW 08:05:32 10° S visible
05 Nov - 12:55:10 10° SSW 12:58:11 29° SE 13:01:10 10° E night (unlit)
05 Nov - 14:32:01 10° WSW 14:34:45 23° NW 14:37:29 10° N visible
06 Nov - 05:34:22 10° NNW 05:37:39 53° NE 05:40:58 10° ESE daylight
06 Nov - 07:12:13 10° WSW 07:14:33 17° SSW 07:16:54 10° SSE visible
06 Nov - 12:06:10 10° SSW 12:08:38 18° SSE 12:11:05 10° ESE night (unlit)
06 Nov - 13:42:14 10° WSW 13:45:30 46° NW 13:48:42 10° NNE night (unlit)
07 Nov - 04:45:29 10° N 04:48:21 26° NE 04:51:14 10° ESE daylight
07 Nov - 06:22:03 10° W 06:24:58 27° SW 06:27:55 10° SSE visible
07 Nov - 11:17:25 10° S 11:18:59 13° SSE 11:20:33 10° SE night (unlit)
07 Nov - 12:52:43 10° SW 12:56:07 85° SE 12:59:28 10° NE night (unlit)
08 Nov - 03:57:16 10° NNE 03:59:04 14° NE 04:00:53 10° E daylight
08 Nov - 05:32:10 10° WNW 05:35:25 46° SW 05:38:43 10° SE daylight
08 Nov - 12:03:22 10° SW 12:06:37 43° SE 12:09:50 10° ENE night (unlit)
08 Nov - 13:41:02 10° W 13:43:00 15° NW 13:44:57 10° NNW night (unlit)
09 Nov - 04:42:33 10° NW 04:45:54 89° NE 04:49:18 10° SE daylight
09 Nov - 06:21:18 10° WSW 06:23:00 13° SSW 06:24:42 10° S visible
09 Nov - 11:14:08 10° SSW 11:17:01 25° SE 11:19:52 10° E night (unlit)
09 Nov - 12:50:43 10° WSW 12:53:39 28° NW 12:56:34 10° NNE night (unlit)
